Weather History for Mansfield, OH

Change the Weather History Date:

Thursday, April 18, 2013

  Actual Average Record
Temperature  
Mean Temperature 71 °F 50 °F  
Max Temperature 82 °F 61 °F 82 °F (1976)
Min Temperature 59 °F 39 °F 23 °F (1990)
Degree Days  
Heating Degree Days 0 15  
Month to date heating degree days 297 335  
Since 1 July heating degree days 5645 5825  
Cooling Degree Days 6 0  
Month to date cooling degree days 6 0  
Year to date cooling degree days 6 1  
Growing Degree Days 20 (Base 50)    
Moisture  
Dew Point 56 °F    
Average Humidity 62    
Maximum Humidity 90    
Minimum Humidity 33    
Precipitation  
Precipitation 0.00 in 0.14 in 2.03 in (1969)
Month to date precipitation 2.92 2.52  
Year to date precipitation 9.60 11.17  
Snow  
Snow 0.00 in 0.10 in - ()
Month to date snowfall 0.0 2.2  
Since 1 July snowfall 39.3 47.9  
Snow Depth 0.00 in    
Sea Level Pressure  
Sea Level Pressure 29.82 in    
Wind  
Wind Speed 19 mph (South)    
Max Wind Speed 35 mph    
Max Gust Speed 47 mph    
Visibility 10 miles    
Events      
T = Trace of Precipitation, MM = Missing Value Source: NWS Daily Summary

Daily Weather History Graph

Daily Weather History Graph

Search for Another Location

Airport:

Trip Planner

Search our weather history database for the weather conditions in past years. The results will help you decide how hot, cold, wet, or windy it might be!

Date:

Astronomy

Apr. 18, 2013 Rise Set
Actual Time 6:46 AM EDT 8:13 PM EDT
Civil Twilight 6:17 AM EDT 8:41 PM EDT
Nautical Twilight 5:43 AM EDT 9:16 PM EDT
Astronomical Twilight 5:06 AM EDT 9:53 PM EDT
Moon 12:56 PM EDT (4/18) 2:27 AM EDT (4/18)
Length of Visible Light 14h 24m
Length of Day
13h 26m
First Quarter, 51% of the Moon is Illuminated
Apr 18
First Quarter
Apr 25
Full
May 2
Last Quarter
May 9
New
May 18
First Quarter

Hourly Weather History & Observations

Time (EDT) Temp. Heat Index Dew Point Humidity Pressure Visibility Wind Dir Wind Speed Gust Speed Precip Events Conditions
12:52 AM 59.0 °F - 55.9 °F 90% 30.01 in 9.0 mi SSE 15.0 mph - N/A   Clear
1:52 AM 60.1 °F - 55.9 °F 86% 29.98 in 10.0 mi SSE 13.8 mph - N/A   Clear
2:52 AM 60.1 °F - 55.9 °F 86% 29.95 in 10.0 mi SSE 13.8 mph - N/A   Clear
3:52 AM 60.1 °F - 57.0 °F 90% 29.93 in 10.0 mi SSE 16.1 mph - N/A   Clear
4:52 AM 60.1 °F - 55.9 °F 86% 29.91 in 10.0 mi SSE 13.8 mph - N/A   Clear
5:52 AM 61.0 °F - 55.9 °F 83% 29.91 in 10.0 mi SSE 16.1 mph - N/A   Clear
6:52 AM 61.0 °F - 55.9 °F 83% 29.91 in 10.0 mi SSE 17.3 mph - N/A   Scattered Clouds
7:52 AM 62.1 °F - 57.0 °F 84% 29.91 in 10.0 mi SSE 12.7 mph - N/A   Clear
8:52 AM 66.0 °F - 57.9 °F 75% 29.90 in 10.0 mi South 13.8 mph - N/A   Mostly Cloudy
9:52 AM 66.9 °F - 59.0 °F 76% 29.89 in 10.0 mi South 18.4 mph 25.3 mph N/A   Mostly Cloudy
10:52 AM 72.0 °F - 60.1 °F 66% 29.87 in 10.0 mi South 21.9 mph 29.9 mph N/A   Scattered Clouds
11:52 AM 75.9 °F - 61.0 °F 60% 29.84 in 10.0 mi South 25.3 mph 35.7 mph N/A   Partly Cloudy
12:52 PM 78.1 °F - 61.0 °F 56% 29.81 in 10.0 mi SSW 25.3 mph 35.7 mph N/A   Clear
1:52 PM 80.1 °F 80.9 °F 60.1 °F 50% 29.78 in 10.0 mi South 28.8 mph 38.0 mph N/A   Clear
2:52 PM 81.0 °F 81.1 °F 57.9 °F 45% 29.76 in 10.0 mi SSW 28.8 mph 42.6 mph N/A   Scattered Clouds
3:52 PM 81.0 °F 80.7 °F 55.0 °F 41% 29.74 in 10.0 mi South 31.1 mph 44.9 mph N/A   Clear
4:52 PM 82.0 °F 81.4 °F 55.0 °F 39% 29.71 in 10.0 mi South 28.8 mph 39.1 mph N/A   Clear
5:52 PM 82.0 °F - 50.0 °F 33% 29.70 in 10.0 mi South 25.3 mph 36.8 mph N/A   Clear
6:52 PM 79.0 °F - 51.1 °F 38% 29.70 in 10.0 mi South 26.5 mph 34.5 mph N/A   Clear
7:52 PM 77.0 °F - 52.0 °F 42% 29.69 in 10.0 mi SSW 18.4 mph - N/A   Clear
8:52 PM 75.9 °F - 52.0 °F 43% 29.69 in 10.0 mi South 16.1 mph - N/A   Overcast
9:52 PM 64.9 °F - 57.0 °F 75% 29.72 in 10.0 mi NW 18.4 mph - N/A   Overcast
10:02 PM 62.6 °F - 57.2 °F 82% 29.74 in 10.0 mi NW 17.3 mph - N/A   Overcast
10:52 PM 62.1 °F - 57.0 °F 84% 29.70 in 10.0 mi NNW 5.8 mph - N/A   Overcast
11:52 PM 62.1 °F - 57.0 °F 84% 29.67 in 10.0 mi East 3.5 mph - N/A   Overcast